Location: Ehrke Reservoir
(40.0279°N, 99.6641°W)
Time: 22:41:22
(UTC+00:00)

USA 215 - Pass Details

Date: 20 January 2020
Orbit: 1101 x 1107 km, 123.0° (Epoch: 06 February)

Event Time Altitude Azimuth Distance (km) Brightness Sun altitude
Rises 11:20:54 0° 116° (ESE) 3,914 7.1 -29.5°
Reaches altitude 10° 11:23:25 10° 113° (ESE) 2,957 6.3 -29.1°
Maximum altitude 11:29:47 58° 36° (NE) 1,272 3.6 -27.8°
Enters shadow 11:32:12 38° 338° (NNW) 1,632 3.9 -27.4°
